CW6018 Weather Reports


Display with metric or nautical units.
time (UTC)temp
F
wind
direction
speed
MPH
gust
MPH
rain 1hr
in
rain 24hr
in
rain mn
in
humidity
%
barometer
mb
20260506102419 50 225 7.0 11.0 0.00 0.00 0.00 63 1011.4
20260506101419 50 180 7.0 11.0 0.00 0.00 0.00 58 1011.4
20260506100418 50 203 12.0 15.0 0.00 0.00 0.00 64 1011.4
20260506095419 49 180 11.0 14.0 0.00 0.00 0.00 62 1011.3
20260506094419 49 225 9.0 11.0 0.00 0.00 0.00 66 1011.4
20260506093419 49 180 11.0 14.0 0.00 0.00 0.00 62 1011.4
20260506092419 49 180 9.0 14.0 0.00 0.00 0.00 64 1011.5
20260506091418 49 203 7.0 12.0 0.00 0.00 0.00 61 1011.5
20260506090439 49 203 7.0 9.0 0.00 0.00 0.00 69 1011.5
20260506085418 49 203 10.0 12.0 0.00 0.00 0.00 68 1011.5
20260506084419 48 203 7.0 11.0 0.00 0.00 0.00 70 1011.5
20260506083418 48 203 7.0 9.0 0.00 0.00 0.00 72 1011.5
20260506082419 48 225 4.0 7.0 0.00 0.00 0.00 71 1011.5
20260506081418 49 225 8.0 10.0 0.00 0.00 0.00 71 1011.5
20260506080418 48 158 8.0 11.0 0.00 0.00 0.00 72 1011.6
20260506073418 48 135 11.0 14.0 0.00 0.00 0.00 73 1011.4
20260506072420 48 135 8.0 11.0 0.00 0.00 0.00 74 1011.3
20260506071420 47 135 6.0 9.0 0.00 0.00 0.00 73 1011.2
20260506070440 47 135 7.0 11.0 0.00 0.00 0.00 73 1011.2
20260506062420 46 113 8.0 12.0 0.00 0.00 0.00 76 1011.2
20260506061420 45 135 6.0 9.0 0.00 0.00 0.00 78 1011.2
20260506060419 44 113 6.0 10.0 0.00 0.00 0.00 80 1011.2
20260506050419 41 113 8.0 11.0 0.00 0.00 0.00 82 1011.1
20260506044419 41 113 6.0 9.0 0.00 0.00 0.00 83 1011.1
20260506043439 40 113 4.0 6.0 0.00 0.00 0.00 83 1011.1
20260506042419 40 113 5.0 7.0 0.00 0.00 0.00 83 1011.1
20260506041419 39 113 6.0 9.0 0.00 0.00 0.00 83 1011.0
20260506040439 39 113 5.0 7.0 0.00 0.00 0.00 83 1011.0
20260506035419 39 113 4.0 6.0 0.00 0.00 0.00 83 1010.9
20260506034439 40 113 3.0 4.0 0.00 0.00 0.00 83 1010.9
20260506033419 40 135 5.0 7.0 0.00 0.00 0.00 83 1010.9
20260506032419 40 135 6.0 8.0 0.00 0.00 0.00 83 1010.8
20260506031418 39 135 6.0 7.0 0.00 0.00 0.00 83 1010.8
20260506030418 39 135 4.0 5.0 0.00 0.00 0.00 83 1010.7
20260506025418 39 113 4.0 6.0 0.00 0.00 0.00 83 1010.7
20260506024418 40 90 6.0 7.0 0.00 0.00 0.00 82 1010.7
20260506023418 41 135 2.0 3.0 0.00 0.00 0.00 82 1010.7
20260506022419 42 135 2.0 3.0 0.00 0.00 0.00 82 1010.6
20260506021519 42 135 4.0 5.0 0.00 0.00 0.00 82 1010.6
20260506020418 42 135 4.0 5.0 0.00 0.00 0.00 82 1010.5
20260506015418 42 135 5.0 6.0 0.00 0.00 0.00 82 1010.5
20260506014418 43 135 3.0 5.0 0.00 0.00 0.00 82 1010.5
20260506013418 43 135 4.0 5.0 0.00 0.00 0.00 82 1010.4
20260506012420 43 135 5.0 6.0 0.00 0.00 0.00 82 1010.3
20260506011440 42 135 5.0 7.0 0.00 0.00 0.00 82 1010.3
20260506010440 41 135 4.0 6.0 0.00 0.00 0.00 82 1010.3
20260506005418 41 135 5.0 6.0 0.00 0.00 0.00 81 1010.3
20260506004420 42 135 5.0 6.0 0.00 0.00 0.00 80 1010.2
20260506003420 43 135 6.0 7.0 0.00 0.00 0.00 78 1010.4
20260506002420 44 135 4.0 5.0 0.00 0.00 0.00 78 1010.3
20260506001419 44 135 5.0 6.0 0.00 0.00 0.00 77 1010.4
20260506000419 45 0 5.0 5.0 0.00 0.00 0.00 74 1010.4
20260505235419 45 180 5.0 6.0 0.00 0.00 0.00 75 1010.4
20260505234440 45 180 4.0 5.0 0.00 0.00 0.00 74 1010.4
20260505233419 45 0 4.0 5.0 0.00 0.00 0.00 74 1010.5
20260505232420 44 0 4.0 5.0 0.00 0.00 0.00 74 1010.5
20260505231419 45 0 4.0 5.0 0.00 0.00 0.00 74 1010.6
20260505230439 45 0 1.0 2.0 0.00 0.00 0.00 73 1010.6
20260505225419 45 158 4.0 4.0 0.00 0.00 0.00 74 1010.5
20260505224419 45 0 5.0 5.0 0.00 0.00 0.00 75 1010.6
20260505223419 45 0 4.0 6.0 0.00 0.00 0.00 75 1010.6
20260505222419 45 0 5.0 6.0 0.00 0.00 0.00 75 1010.6
20260505221419 44 135 6.0 6.0 0.00 0.00 0.00 75 1010.7
20260505220419 45 0 5.0 6.0 0.00 0.00 0.00 74 1010.7
20260505215420 45 180 3.0 5.0 0.00 0.00 0.00 74 1010.8
20260505214419 45 203 6.0 7.0 0.00 0.00 0.00 74 1010.7
20260505213420 45 180 4.0 5.0 0.00 0.00 0.00 74 1010.8
20260505212420 45 203 5.0 6.0 0.00 0.00 0.00 74 1010.7
20260505211419 46 203 4.0 5.0 0.00 0.00 0.00 73 1010.7
20260505210419 46 180 5.0 7.0 0.00 0.00 0.00 73 1010.7
20260505205419 46 203 6.0 9.0 0.00 0.00 0.00 72 1010.6
20260505204419 46 225 6.0 8.0 0.00 0.00 0.00 70 1010.6
20260505203419 46 203 5.0 7.0 0.00 0.00 0.00 69 1010.6
20260505202419 46 203 5.0 7.0 0.00 0.00 0.00 70 1010.6
20260505201419 46 203 6.0 8.0 0.00 0.00 0.00 68 1010.6
20260505200418 46 203 5.0 7.0 0.00 0.00 0.00 68 1010.6
20260505195419 46 248 6.0 7.0 0.00 0.00 0.00 68 1010.6
20260505194418 46 203 3.0 5.0 0.00 0.00 0.00 67 1010.6
20260505193418 46 248 6.0 8.0 0.00 0.00 0.00 66 1010.5
20260505192418 46 203 6.0 9.0 0.00 0.00 0.00 65 1010.4
20260505191418 46 203 5.0 9.0 0.00 0.00 0.00 65 1010.5
20260505190419 46 203 7.0 10.0 0.00 0.00 0.00 63 1010.4
20260505185418 47 248 8.0 10.0 0.00 0.00 0.00 63 1010.3
20260505184418 47 203 9.0 11.0 0.00 0.00 0.00 61 1010.2
20260505183418 47 225 9.0 11.0 0.00 0.00 0.00 60 1010.2
20260505182418 47 248 8.0 10.0 0.00 0.00 0.00 60 1010.2
20260505181419 47 225 10.0 12.0 0.00 0.00 0.00 58 1010.2
20260505180418 48 248 6.0 7.0 0.00 0.00 0.00 57 1010.3
20260505175418 48 248 11.0 13.0 0.00 0.00 0.00 55 1010.3
20260505174418 48 248 10.0 13.0 0.00 0.00 0.00 57 1010.2
20260505173418 48 225 9.0 12.0 0.00 0.00 0.00 55 1010.3
20260505172438 48 248 11.0 13.0 0.00 0.00 0.00 54 1010.3
20260505171420 48 248 12.0 14.0 0.00 0.00 0.00 56 1010.2
20260505170420 48 203 10.0 12.0 0.00 0.00 0.00 54 1010.2
20260505165440 49 248 13.0 14.0 0.00 0.00 0.00 51 1010.2
20260505164419 49 248 10.0 12.0 0.00 0.00 0.00 49 1010.3
20260505163420 50 270 10.0 14.0 0.00 0.00 0.00 51 1010.3
20260505162419 49 248 12.0 14.0 0.00 0.00 0.00 52 1010.4
20260505161420 50 248 11.0 14.0 0.00 0.00 0.00 50 1010.4
20260505160439 49 270 10.0 14.0 0.00 0.00 0.00 52 1010.3
20260505152419 49 248 9.0 13.0 0.00 0.00 0.00 48 1010.4
20260505151419 49 270 9.0 12.0 0.00 0.00 0.00 46 1010.4
20260505150419 50 248 11.0 14.0 0.00 0.00 0.00 46 1010.4
20260505140439 54 293 9.0 12.0 0.00 0.00 0.00 40 1010.4
20260505124419 53 270 9.0 12.0 0.00 0.00 0.00 41 1010.5
20260505123438 53 293 12.0 15.0 0.00 0.00 0.00 39 1010.6
20260505122438 52 293 10.0 11.0 0.00 0.00 0.00 40 1010.7
20260505121418 52 270 11.0 16.0 0.00 0.00 0.00 41 1010.6
20260505120418 52 293 14.0 16.0 0.00 0.00 0.00 41 1010.7
20260505115418 53 293 12.0 14.0 0.00 0.00 0.00 40 1010.6
20260505114418 52 293 7.0 10.0 0.00 0.00 0.00 43 1010.6
20260505113438 53 293 13.0 15.0 0.00 0.00 0.00 44 1010.6
20260505112418 53 293 10.0 11.0 0.00 0.00 0.00 44 1010.7
20260505111420 53 293 11.0 14.0 0.00 0.00 0.00 43 1010.7
20260505110419 53 315 9.0 12.0 0.00 0.00 0.00 44 1010.7